| time (UTC) | temp F | wind direction | speed MPH | gust MPH | rain 1hr in | rain 24hr in | rain mn in | humidity % | barometer mb |
| 20260906074223 | 84 | 4.0 | 8.0 | 0.00 | 0.00 | 0.00 | 11 | 1012.8 | |
| 20260906073206 | 86 | 0.0 | 1.0 | 0.00 | 0.00 | 0.00 | 11 | 1012.8 | |
| 20260906072152 | 82 | 0.0 | 3.0 | 0.00 | 0.00 | 0.00 | 11 | 1012.6 | |
| 20260906071139 | 82 | 0.0 | 1.0 | 0.00 | 0.00 | 0.00 | 11 | 1012.5 | |
| 20260906070127 | 82 | 0.0 | 2.0 | 0.00 | 0.00 | 0.00 | 11 | 1012.7 | |
| 20260906065115 | 82 | 0.0 | 1.0 | 0.00 | 0.00 | 0.00 | 11 | 1012.6 | |
| 20260906064103 | 80 | 0.0 | 0.0 | 0.00 | 0.00 | 0.00 | 11 | 1012.4 | |
| 20260906063051 | 78 | 0.0 | 0.0 | 0.00 | 0.00 | 0.00 | 11 | 1012.4 | |
| 20260906061939 | 71 | 0.0 | 2.0 | 0.00 | 0.00 | 0.00 | 11 | 1012.3 | |
| 20260906060928 | 69 | 0.0 | 0.0 | 0.00 | 0.00 | 0.00 | 11 | 1012.1 | |
| 20260906055917 | 69 | 0.0 | 0.0 | 0.00 | 0.00 | 0.00 | 11 | 1012.0 | |
| 20260906054905 | 69 | 0.0 | 0.0 | 0.00 | 0.00 | 0.00 | 11 | 1012.2 | |
| 20260906053651 | 69 | 0.0 | 0.0 | 0.00 | 0.00 | 0.00 | 11 | 1012.0 | |
| 20260906052640 | 69 | 0.0 | 0.0 | 0.00 | 0.00 | 0.00 | 11 | 1011.9 | |
| 20260906051629 | 69 | 0.0 | 0.0 | 0.00 | 0.00 | 0.00 | 11 | 1011.9 | |
| 20260906050011 | 69 | 0.0 | 1.0 | 0.00 | 0.00 | 0.00 | 11 | 1011.9 | |
| 20260906045000 | 69 | 0.0 | 0.0 | 0.00 | 0.00 | 0.00 | 11 | 1011.8 | |
| 20260906043948 | 69 | 0.0 | 0.0 | 0.00 | 0.00 | 0.00 | 11 | 1011.6 | |
| 20260906042532 | 69 | 0.0 | 0.0 | 0.00 | 0.00 | 0.00 | 11 | 1011.5 | |
| 20260906041517 | 69 | 0.0 | 0.0 | 0.00 | 0.00 | 0.00 | 11 | 1011.4 | |
| 20260906040506 | 69 | 0.0 | 0.0 | 0.00 | 0.00 | 0.00 | 11 | 1011.4 | |
| 20260906035455 | 69 | 0.0 | 1.0 | 0.00 | 0.00 | 0.00 | 11 | 1011.3 | |
| 20260906034442 | 69 | 0.0 | 0.0 | 0.00 | 0.00 | 0.00 | 11 | 1011.2 | |
| 20260906033430 | 69 | 0.0 | 0.0 | 0.00 | 0.00 | 0.00 | 11 | 1011.2 | |
| 20260906032419 | 71 | 0.0 | 0.0 | 0.00 | 0.00 | 0.00 | 11 | 1011.2 | |
| 20260906031408 | 71 | 0.0 | 3.0 | 0.00 | 0.00 | 0.00 | 11 | 1011.2 | |
| 20260906030356 | 71 | 0.0 | 1.0 | 0.00 | 0.00 | 0.00 | 11 | 1011.2 | |
| 20260906025344 | 71 | 0.0 | 1.0 | 0.00 | 0.00 | 0.00 | 11 | 1011.2 | |
| 20260906022310 | 71 | 0.0 | 0.0 | 0.00 | 0.00 | 0.00 | 11 | 1011.1 | |
| 20260906015537 | 71 | 0.0 | 0.0 | 0.00 | 0.00 | 0.00 | 11 | 1011.2 | |
| 20260906011551 | 71 | 0.0 | 3.0 | 0.00 | 0.00 | 0.00 | 11 | 1011.1 | |
| 20260906005427 | 71 | 0.0 | 0.0 | 0.00 | 0.00 | 0.00 | 11 | 1011.2 | |
| 20260906004011 | 73 | 0.0 | 0.0 | 0.00 | 0.00 | 0.00 | 11 | 1011.1 | |
| 20260906000929 | 73 | 0.0 | 0.0 | 0.00 | 0.00 | 0.00 | 11 | 1011.1 | |
| 20260905232719 | 73 | 0.0 | 0.0 | 0.00 | 0.00 | 0.00 | 11 | 1011.2 | |
| 20260905230758 | 73 | 0.0 | 1.0 | 0.00 | 0.00 | 0.00 | 11 | 1011.3 | |
| 20260905225645 | 73 | 0.0 | 0.0 | 0.00 | 0.00 | 0.00 | 11 | 1011.3 | |
| 20260905224225 | 73 | 0.0 | 0.0 | 0.00 | 0.00 | 0.00 | 11 | 1011.3 | |
| 20260905223213 | 75 | 0.0 | 0.0 | 0.00 | 0.00 | 0.00 | 11 | 1011.4 | |
| 20260905222157 | 75 | 0.0 | 1.0 | 0.00 | 0.00 | 0.00 | 11 | 1011.2 | |
| 20260905221145 | 75 | 0.0 | 1.0 | 0.00 | 0.00 | 0.00 | 11 | 1011.2 | |
| 20260905220133 | 75 | 1.0 | 1.0 | 0.00 | 0.00 | 0.00 | 11 | 1011.2 | |
| 20260905215117 | 75 | 0.0 | 0.0 | 0.00 | 0.00 | 0.00 | 11 | 1011.1 | |
| 20260905214106 | 75 | 1.0 | 1.0 | 0.00 | 0.00 | 0.00 | 11 | 1011.1 | |
| 20260905213051 | 75 | 0.0 | 0.0 | 0.00 | 0.00 | 0.00 | 11 | 1011.1 | |
| 20260905211938 | 77 | 0.0 | 0.0 | 0.00 | 0.00 | 0.00 | 11 | 1011.0 | |
| 20260905210825 | 77 | 0.0 | 0.0 | 0.00 | 0.00 | 0.00 | 11 | 1011.0 | |
| 20260905205813 | 77 | 0.0 | 0.0 | 0.00 | 0.00 | 0.00 | 11 | 1011.1 | |
| 20260905204457 | 77 | 0.0 | 0.0 | 0.00 | 0.00 | 0.00 | 11 | 1011.1 | |
| 20260905203141 | 77 | 0.0 | 1.0 | 0.00 | 0.00 | 0.00 | 11 | 1010.9 | |
| 20260905202128 | 77 | 0.0 | 0.0 | 0.00 | 0.00 | 0.00 | 11 | 1011.0 | |
| 20260905201117 | 77 | 0.0 | 0.0 | 0.00 | 0.00 | 0.00 | 11 | 1010.9 | |
| 20260905195800 | 77 | 0.0 | 3.0 | 0.00 | 0.00 | 0.00 | 11 | 1010.7 | |
| 20260905194748 | 77 | 0.0 | 1.0 | 0.00 | 0.00 | 0.00 | 11 | 1010.8 | |
| 20260905193735 | 77 | 1.0 | 3.0 | 0.00 | 0.00 | 0.00 | 11 | 1010.7 | |
| 20260905192724 | 77 | 1.0 | 3.0 | 0.00 | 0.00 | 0.00 | 11 | 1010.7 | |
| 20260905191712 | 77 | 1.0 | 4.0 | 0.00 | 0.00 | 0.00 | 11 | 1010.5 | |
| 20260905190701 | 77 | 0.0 | 4.0 | 0.00 | 0.00 | 0.00 | 11 | 1010.5 | |
| 20260905185649 | 77 | 1.0 | 3.0 | 0.00 | 0.00 | 0.00 | 11 | 1010.4 | |
| 20260905184636 | 77 | 0.0 | 6.0 | 0.00 | 0.00 | 0.00 | 11 | 1010.2 | |
| 20260905183625 | 78 | 1.0 | 3.0 | 0.00 | 0.00 | 0.00 | 11 | 1010.2 | |
| 20260905182613 | 78 | 0.0 | 5.0 | 0.00 | 0.00 | 0.00 | 11 | 1010.1 | |
| 20260905181601 | 78 | 1.0 | 1.0 | 0.00 | 0.00 | 0.00 | 11 | 1010.0 | |
| 20260905180547 | 78 | 1.0 | 3.0 | 0.00 | 0.00 | 0.00 | 11 | 1009.9 | |
| 20260905175536 | 78 | 0.0 | 3.0 | 0.00 | 0.00 | 0.00 | 11 | 1009.8 | |
| 20260905174525 | 78 | 0.0 | 3.0 | 0.00 | 0.00 | 0.00 | 11 | 1009.8 | |
| 20260905173513 | 78 | 4.0 | 6.0 | 0.00 | 0.00 | 0.00 | 11 | 1009.7 | |
| 20260905172502 | 78 | 0.0 | 3.0 | 0.00 | 0.00 | 0.00 | 11 | 1009.8 | |
| 20260905171450 | 80 | 2.0 | 5.0 | 0.00 | 0.00 | 0.00 | 11 | 1009.8 | |
| 20260905170439 | 80 | 1.0 | 6.0 | 0.00 | 0.00 | 0.00 | 11 | 1009.6 | |
| 20260905165427 | 80 | 3.0 | 5.0 | 0.00 | 0.00 | 0.00 | 11 | 1009.7 | |
| 20260905164416 | 80 | 3.0 | 10.0 | 0.00 | 0.00 | 0.00 | 11 | 1009.6 | |
| 20260905163404 | 80 | 4.0 | 6.0 | 0.00 | 0.00 | 0.00 | 11 | 1009.7 | |
| 20260905162352 | 80 | 4.0 | 9.0 | 0.00 | 0.00 | 0.00 | 11 | 1009.6 | |
| 20260905161340 | 82 | 5.0 | 9.0 | 0.00 | 0.00 | 0.00 | 11 | 1009.5 | |
| 20260905160328 | 82 | 5.0 | 9.0 | 0.00 | 0.00 | 0.00 | 11 | 1009.7 | |
| 20260905155315 | 82 | 3.0 | 8.0 | 0.00 | 0.00 | 0.00 | 11 | 1009.6 | |
| 20260905154303 | 82 | 6.0 | 9.0 | 0.00 | 0.00 | 0.00 | 11 | 1009.8 | |
| 20260905153150 | 82 | 5.0 | 8.0 | 0.00 | 0.00 | 0.00 | 11 | 1009.9 | |
| 20260905152139 | 84 | 2.0 | 8.0 | 0.00 | 0.00 | 0.00 | 11 | 1010.0 | |
| 20260905151124 | 84 | 4.0 | 9.0 | 0.00 | 0.00 | 0.00 | 11 | 1010.0 | |
| 20260905150113 | 84 | 4.0 | 12.0 | 0.00 | 0.00 | 0.00 | 11 | 1010.1 | |
| 20260905145100 | 84 | 6.0 | 11.0 | 0.00 | 0.00 | 0.00 | 11 | 1010.0 | |
| 20260905144049 | 84 | 6.0 | 12.0 | 0.00 | 0.00 | 0.00 | 11 | 1010.0 | |
| 20260905143037 | 86 | 5.0 | 8.0 | 0.00 | 0.00 | 0.00 | 11 | 1010.1 | |
| 20260905142026 | 82 | 5.0 | 14.0 | 0.00 | 0.00 | 0.00 | 11 | 1010.1 | |
| 20260905141014 | 84 | 4.0 | 11.0 | 0.00 | 0.00 | 0.00 | 11 | 1010.1 | |
| 20260905140002 | 84 | 6.0 | 9.0 | 0.00 | 0.00 | 0.00 | 11 | 1010.3 | |
| 20260905134951 | 86 | 5.0 | 11.0 | 0.00 | 0.00 | 0.00 | 11 | 1010.2 | |
| 20260905133940 | 84 | 7.0 | 12.0 | 0.00 | 0.00 | 0.00 | 11 | 1010.4 | |
| 20260905132928 | 86 | 5.0 | 10.0 | 0.00 | 0.00 | 0.00 | 11 | 1010.3 | |
| 20260905131916 | 86 | 5.0 | 11.0 | 0.00 | 0.00 | 0.00 | 11 | 1010.4 | |
| 20260905130905 | 86 | 3.0 | 10.0 | 0.00 | 0.00 | 0.00 | 11 | 1010.4 | |
| 20260905125854 | 86 | 6.0 | 13.0 | 0.00 | 0.00 | 0.00 | 11 | 1010.5 | |
| 20260905124842 | 86 | 6.0 | 11.0 | 0.00 | 0.00 | 0.00 | 11 | 1010.4 | |
| 20260905123828 | 87 | 7.0 | 11.0 | 0.00 | 0.00 | 0.00 | 11 | 1010.5 | |
| 20260905122816 | 86 | 4.0 | 9.0 | 0.00 | 0.00 | 0.00 | 11 | 1010.5 | |
| 20260905121803 | 89 | 2.0 | 12.0 | 0.00 | 0.00 | 0.00 | 11 | 1010.7 | |
| 20260905120752 | 86 | 5.0 | 10.0 | 0.00 | 0.00 | 0.00 | 11 | 1010.6 | |
| 20260905115740 | 86 | 4.0 | 8.0 | 0.00 | 0.00 | 0.00 | 11 | 1010.7 | |
| 20260905114728 | 87 | 2.0 | 9.0 | 0.00 | 0.00 | 0.00 | 11 | 1010.6 | |
| 20260905113717 | 86 | 4.0 | 11.0 | 0.00 | 0.00 | 0.00 | 11 | 1010.4 | |
| 20260905112705 | 86 | 2.0 | 8.0 | 0.00 | 0.00 | 0.00 | 11 | 1010.7 | |
| 20260905111653 | 87 | 4.0 | 6.0 | 0.00 | 0.00 | 0.00 | 11 | 1010.6 | |
| 20260905110642 | 87 | 2.0 | 6.0 | 0.00 | 0.00 | 0.00 | 11 | 1010.7 | |
| 20260905105630 | 84 | 1.0 | 5.0 | 0.00 | 0.00 | 0.00 | 11 | 1010.8 | |
| 20260905104618 | 82 | 0.0 | 6.0 | 0.00 | 0.00 | 0.00 | 11 | 1010.8 | |
| 20260905103607 | 84 | 3.0 | 6.0 | 0.00 | 0.00 | 0.00 | 11 | 1010.7 | |
| 20260905102555 | 82 | 3.0 | 5.0 | 0.00 | 0.00 | 0.00 | 11 | 1010.7 | |
| 20260905101544 | 82 | 2.0 | 4.0 | 0.00 | 0.00 | 0.00 | 11 | 1010.8 | |
| 20260905100533 | 80 | 1.0 | 1.0 | 0.00 | 0.00 | 0.00 | 11 | 1010.9 | |
| 20260905095521 | 80 | 3.0 | 5.0 | 0.00 | 0.00 | 0.00 | 11 | 1010.8 | |
| 20260905094510 | 80 | 3.0 | 6.0 | 0.00 | 0.00 | 0.00 | 11 | 1010.8 | |
| 20260905093458 | 80 | 1.0 | 4.0 | 0.00 | 0.00 | 0.00 | 11 | 1010.9 | |
| 20260905092446 | 80 | 2.0 | 4.0 | 0.00 | 0.00 | 0.00 | 11 | 1010.9 | |
| 20260905091435 | 80 | 1.0 | 4.0 | 0.00 | 0.00 | 0.00 | 11 | 1010.8 | |
| 20260905090423 | 78 | 3.0 | 5.0 | 0.00 | 0.00 | 0.00 | 11 | 1010.7 | |
| 20260905085411 | 78 | 0.0 | 3.0 | 0.00 | 0.00 | 0.00 | 11 | 1010.7 | |
| 20260905084357 | 78 | 0.0 | 3.0 | 0.00 | 0.00 | 0.00 | 11 | 1010.7 | |
| 20260905083344 | 78 | 0.0 | 1.0 | 0.00 | 0.00 | 0.00 | 11 | 1010.7 |